Location: Unspecified
(0.0000°N, 0.0000°E)
Time: 10:51:16
(UTC+00:00)

Hubble Space Telescope - Pass Details

Date: 16 October 2017
Orbit: 537 x 541 km, 28.5° (Epoch: 15 December)

Event Time Altitude Azimuth Distance (km) Brightness Sun altitude
Rises 18:36:35 0° 267° (W) 2,671 6.3 -12.6°
Reaches altitude 10° 18:39:21 10° 286° (WNW) 1,778 4.5 -13.3°
Maximum altitude 18:42:17 19° 331° (NNW) 1,313 3.0 -14.0°
Drops below altitude 10° 18:45:13 10° 17° (NNE) 1,774 3.1 -14.7°
Enters shadow 18:45:44 - 22° (NNE) 1,920 3.3 -14.9°
